INMARSAT 5-F1

Last updated on Thu Aug 13 2026 00:02:59 GMT+0000 (Coordinated Universal Time)

1 39476U 13073A 26224.60007605 .00000010 00000+0 00000+0 0 9992 2 39476 0.0163 83.1980 0001104 104.7082 51.7778 1.00271228 46141
UTC large
Height (km)
Speed (km/s)
/
Latitude / Longitude
Inclination (degrees)
Orbital Period (minutes)
Azimuth
Elevation
Range (km)
Doppler Factor

Next 0 passes for location: London (51.5072 / 0.1276)

No passes found over London.
INMARSAT 5-F1